#timestamp,LO_Frequency,Hit,StdDev 
1522040415.2,286047000.3,N
1522040435.1,286047002.8,N
1522040436.0,286047002.8,N
1522040455.8,286047000.9,N
1522040475.7,286046998.6,N
1522040495.5,286047000.3,N
1522040515.3,286046999.7,N
1522040535.2,286047002.0,N
1522040555.0,286047002.5,N
1522040555.9,286047002.5,N
1522040575.7,286047002.7,N
1522040595.6,286047001.9,N
1522040615.4,286047002.4,N
1522040635.3,286047000.0,N
1522040655.1,286047000.1,N
1522040656.0,286047000.1,N
1522040675.8,286047000.6,N
1522040695.7,286046999.7,N
1522040715.5,286046999.8,N
1522040735.4,286046999.7,N
1522040755.2,286047001.1,N
1522040775.0,286046999.9,N
1522040775.9,286046999.9,N
1522040795.8,286047001.7,N
1522040815.6,286047004.0,N
1522040835.4,286047003.5,N
1522040855.3,286047005.7,Y
1522040875.1,286047003.9,P
1522040895.9,286047011.9,P
1522040915.7,286047004.0,N
1522040935.5,286047003.1,N
1522040955.4,286047002.8,N
1522040975.2,286046998.3,N
1522040995.1,286046999.2,N
1522040996.0,286046999.2,N
1522041015.8,286046999.5,N
1522041035.6,286047002.4,N
1522041055.5,286047002.7,N
1522041075.3,286047000.2,N
1522041095.2,286046998.7,N
1522041115.9,286046999.3,N
1522041135.7,286046999.9,N
1522041155.6,286047002.7,N
1522041175.4,286047000.7,N
1522041195.2,286047001.2,N
1522041215.1,286047001.2,N
1522041216.0,286047001.2,N
1522041235.8,286047001.2,N
1522041255.7,286047000.7,N
1522041275.5,286047001.6,N
1522041295.3,286047002.3,N
1522041315.2,286047002.2,N
1522041335.0,286047003.3,N
1522041335.9,286047003.3,N
1522041355.7,286047001.3,N
1522041375.6,286047000.2,N
1522041395.4,286047004.2,N
1522041415.3,286047001.8,N
1522041435.1,286047000.3,N
1522041455.8,286047000.8,N
1522041475.7,286047002.2,N
1522041495.5,286046998.5,N
1522041515.4,286047000.2,N
1522041535.2,286046998.4,N
1522041555.0,286046999.1,N
1522041555.9,286046999.1,N
1522041575.8,286047000.9,N
1522041595.6,286047001.2,N
1522041615.4,286047000.2,N
1522041635.3,286047001.6,N
1522041655.1,286047004.1,N
1522041675.9,286047001.0,N
1522041695.7,286047000.9,N
1522041715.5,286047000.6,N
1522041735.4,286046999.4,N
1522041755.2,286047001.2,N
1522041775.0,286047001.1,N
1522041776.0,286047001.1,N
1522041795.8,286047000.2,N
1522041815.6,286046999.8,N
1522041835.5,286047002.2,N
1522041855.3,286047002.8,N
1522041875.1,286047000.0,N
1522041895.9,286047001.1,N
1522041915.7,286047000.3,N
1522041935.5,286047000.2,N
1522041955.4,286046998.1,N
1522041975.2,286047001.2,N
1522041995.1,286047001.2,N
1522041996.0,286047001.2,N
1522042015.8,286046998.2,N
1522042035.6,286047000.5,N
1522042055.5,286047001.8,N
1522042075.3,286047000.2,N
1522042095.1,286047000.4,N
1522042115.9,286047000.4,N
1522042135.7,286046998.1,N
1522042155.6,286047000.7,N
1522042175.4,286047000.7,N
1522042195.2,286047000.5,N
1522042215.1,286047001.1,N
1522042216.0,286047001.1,N
1522042235.8,286046998.4,N
1522042255.7,286046998.7,N
1522042275.5,286047002.3,N
1522042295.3,286047001.9,N
1522042315.2,286047002.4,N
1522042335.9,286047000.5,N
1522042355.7,286047002.7,N
1522042375.6,286047000.5,N
1522042395.4,286047000.0,N
1522042415.3,286047001.6,N
1522042435.1,286047002.6,N
1522042436.0,286047002.6,N
1522042455.8,286047001.6,N
1522042475.7,286047006.0,Y
1522042495.5,286046999.7,P
1522042515.3,286047000.9,N
1522042535.2,286046998.2,P
1522042555.0,286047001.2,N
1522042555.9,286047001.2,N
1522042575.8,286047001.2,N
1522042595.6,286047002.2,N
1522042615.4,286047000.4,N
1522042635.3,286047001.0,N
1522042655.1,286047000.3,N
1522042675.8,286047000.7,N
1522042695.7,286047000.5,N
1522042715.5,286047000.9,N
1522042735.4,286047001.1,N
1522042755.2,286047001.2,N
1522042775.0,286047008.6,Y
1522042775.9,286047008.6,P
1522042795.8,286047009.3,N
1522042815.6,286047012.3,P
1522042835.5,286047016.8,Y
1522042855.3,286047008.2,P
1522042875.1,286047006.1,P
1522042895.9,286047005.7,P
1522042915.7,286047004.8,Y
1522042935.5,286046997.2,P
1522042955.4,286046996.2,N
1522042975.2,286046994.8,N
1522042995.1,286046988.6,N
1522042996.0,286046988.6,N
1522043015.8,286046983.8,N
1522043035.6,286046981.2,N
1522043055.5,286046979.7,N
1522043075.3,286046978.0,N
1522043095.2,286046975.8,N
1522043115.9,286046978.7,N
1522043135.7,286046978.3,N
1522043155.6,286046978.4,N
1522043175.4,286046978.2,N
1522043195.3,286046978.6,N
1522043215.1,286046978.3,N
1522043216.0,286046978.3,N
1522043235.8,286046975.7,N
1522043255.7,286046976.1,N
1522043275.5,286046976.9,N
1522043295.3,286046976.2,N
1522043315.2,286046978.3,N
1522043335.0,286046977.6,N
1522043335.9,286046977.6,N
1522043355.8,286046977.6,N
1522043375.6,286046980.3,N
1522043395.4,286046980.4,N
1522043415.3,286046977.5,N
1522043435.1,286046975.7,Y
1522043455.8,286046993.7,P
1522043475.7,286046994.1,N
1522043495.5,286046991.7,N
1522043515.4,286046993.7,N
1522043535.2,286046993.9,N
1522043555.0,286046994.2,N
1522043555.9,286046994.2,N
1522043575.8,286046995.1,N
1522043595.6,286046996.0,N
1522043615.4,286046994.9,N
1522043635.3,286046995.1,N
1522043655.1,286046995.1,N
1522043675.9,286046996.0,N
1522043695.7,286046995.5,N
1522043715.5,286046995.8,N
1522043735.4,286046997.9,N
1522043755.2,286046997.7,N
1522043775.0,286046997.6,N
1522043776.0,286046997.6,N
1522043795.8,286046997.9,N
1522043815.6,286046995.0,N
1522043835.5,286046995.4,N
1522043855.3,286046995.4,N
1522043875.1,286046998.0,N
1522043895.9,286046999.6,N
1522043915.7,286046996.8,N
1522043935.6,286046999.3,N
1522043955.4,286046999.2,N
1522043975.2,286046997.2,N
1522043995.1,286046997.1,N
1522043996.0,286046997.1,N
